Time,TemperatureF,DewpointF,PressureIn,WindDirection,WindDirectionDegrees,WindSpeedMPH,WindSpeedGustMPH,Humidity,HourlyPrecipIn,Conditions,Clouds,dailyrainin,SoftwareType,DateUTC
2013-07-14 00:01:00,72.4,65.2,30.13,NNW,338,0.0,0.0,78,0.00,,,0.00,WUHU216HW,2013-07-14 04:01:00,
2013-07-14 00:02:00,72.4,65.2,30.13,NNW,338,0.0,0.0,78,0.00,,,0.00,WUHU216HW,2013-07-14 04:02:00,
2013-07-14 00:07:00,72.2,65.0,30.13,NNW,338,0.0,0.0,78,0.00,,,0.00,WUHU216HW,2013-07-14 04:07:00,
2013-07-14 00:12:00,72.0,65.2,30.13,NNW,338,0.0,0.4,79,0.00,,,0.00,WUHU216HW,2013-07-14 04:12:00,
2013-07-14 00:17:00,71.8,65.0,30.13,NNW,338,0.0,0.4,79,0.00,,,0.00,WUHU216HW,2013-07-14 04:17:00,
2013-07-14 00:22:00,71.6,64.8,30.12,NNW,338,0.0,0.0,79,0.00,,,0.00,WUHU216HW,2013-07-14 04:22:00,
2013-07-14 00:27:00,71.6,64.8,30.13,NNW,338,0.0,0.0,79,0.00,,,0.00,WUHU216HW,2013-07-14 04:27:00,
2013-07-14 00:32:00,71.6,64.8,30.13,NNW,338,0.0,0.0,79,0.00,,,0.00,WUHU216HW,2013-07-14 04:32:00,
2013-07-14 00:37:00,71.6,64.8,30.13,NNW,338,0.0,0.0,79,0.00,,,0.00,WUHU216HW,2013-07-14 04:37:00,
2013-07-14 00:42:00,71.6,64.8,30.13,NNW,338,0.0,0.0,79,0.00,,,0.00,WUHU216HW,2013-07-14 04:42:00,
2013-07-14 00:47:00,71.6,65.2,30.12,NNW,338,0.0,0.0,80,0.00,,,0.00,WUHU216HW,2013-07-14 04:47:00,
2013-07-14 00:52:00,71.6,65.2,30.12,NE,45,0.0,0.0,80,0.00,,,0.00,WUHU216HW,2013-07-14 04:52:00,
2013-07-14 00:57:00,71.6,65.2,30.13,NE,45,0.0,0.0,80,0.00,,,0.00,WUHU216HW,2013-07-14 04:57:00,
2013-07-14 01:02:00,71.6,65.2,30.13,NE,45,0.0,0.0,80,0.00,,,0.00,WUHU216HW,2013-07-14 05:02:00,
2013-07-14 01:07:00,71.6,65.2,30.13,NE,45,0.0,0.0,80,0.00,,,0.00,WUHU216HW,2013-07-14 05:07:00,
2013-07-14 01:12:00,71.6,65.2,30.13,NE,45,0.0,0.0,80,0.00,,,0.00,WUHU216HW,2013-07-14 05:12:00,
2013-07-14 01:17:00,71.6,65.2,30.13,NE,45,0.0,0.0,80,0.00,,,0.00,WUHU216HW,2013-07-14 05:17:00,
2013-07-14 01:22:00,71.6,65.2,30.13,NE,45,0.0,0.0,80,0.00,,,0.00,WUHU216HW,2013-07-14 05:22:00,
2013-07-14 01:27:00,71.6,65.2,30.13,NE,45,0.0,0.0,80,0.00,,,0.00,WUHU216HW,2013-07-14 05:27:00,
2013-07-14 01:32:00,71.6,65.2,30.13,NE,45,0.0,0.0,80,0.00,,,0.00,WUHU216HW,2013-07-14 05:32:00,
2013-07-14 01:37:00,71.6,65.2,30.13,NE,45,0.0,0.0,80,0.00,,,0.00,WUHU216HW,2013-07-14 05:37:00,
2013-07-14 01:42:00,71.5,65.0,30.13,NE,45,0.0,0.0,80,0.00,,,0.00,WUHU216HW,2013-07-14 05:42:00,
2013-07-14 01:47:00,71.5,65.0,30.13,NE,45,0.2,0.7,80,0.00,,,0.00,WUHU216HW,2013-07-14 05:47:00,
2013-07-14 01:52:00,71.5,65.0,30.13,NE,45,0.0,0.7,80,0.00,,,0.00,WUHU216HW,2013-07-14 05:52:00,
2013-07-14 01:57:00,71.5,65.0,30.13,NE,45,0.0,0.0,80,0.00,,,0.00,WUHU216HW,2013-07-14 05:57:00,
2013-07-14 02:02:00,71.5,65.0,30.13,NE,45,0.0,0.0,80,0.00,,,0.00,WUHU216HW,2013-07-14 06:02:00,
2013-07-14 02:07:00,71.5,65.0,30.13,NE,45,0.2,0.2,80,0.00,,,0.00,WUHU216HW,2013-07-14 06:07:00,
2013-07-14 02:12:00,71.5,65.0,30.13,NE,45,0.0,0.7,80,0.00,,,0.00,WUHU216HW,2013-07-14 06:12:00,
2013-07-14 02:17:00,71.5,65.0,30.13,NE,45,0.0,0.7,80,0.00,,,0.00,WUHU216HW,2013-07-14 06:17:00,
2013-07-14 02:22:00,71.3,64.8,30.12,NE,45,0.0,0.0,80,0.00,,,0.00,WUHU216HW,2013-07-14 06:22:00,
2013-07-14 02:27:00,71.3,64.8,30.12,NE,45,0.0,0.0,80,0.00,,,0.00,WUHU216HW,2013-07-14 06:27:00,
2013-07-14 02:32:00,71.3,65.2,30.13,NE,45,0.0,0.0,81,0.00,,,0.00,WUHU216HW,2013-07-14 06:32:00,
2013-07-14 02:37:00,71.3,65.2,30.12,NE,45,0.0,0.0,81,0.00,,,0.00,WUHU216HW,2013-07-14 06:37:00,
2013-07-14 02:42:00,71.1,65.0,30.12,NE,45,0.0,0.0,81,0.00,,,0.00,WUHU216HW,2013-07-14 06:42:00,
2013-07-14 02:47:00,71.3,65.2,30.12,NE,45,0.0,0.0,81,0.00,,,0.00,WUHU216HW,2013-07-14 06:47:00,
2013-07-14 02:52:00,71.3,65.2,30.13,NE,45,0.0,0.2,81,0.00,,,0.00,WUHU216HW,2013-07-14 06:52:00,
2013-07-14 02:57:00,71.3,65.2,30.13,SE,135,0.9,1.1,81,0.00,,,0.00,WUHU216HW,2013-07-14 06:57:00,
2013-07-14 03:02:00,71.1,65.4,30.13,ESE,113,0.7,1.1,82,0.00,,,0.00,WUHU216HW,2013-07-14 07:02:00,
2013-07-14 03:07:00,71.1,65.4,30.12,ESE,113,0.0,1.1,82,0.00,,,0.00,WUHU216HW,2013-07-14 07:07:00,
2013-07-14 03:12:00,70.9,64.8,30.12,ENE,68,0.0,0.7,81,0.00,,,0.00,WUHU216HW,2013-07-14 07:12:00,
2013-07-14 03:17:00,70.9,64.8,30.12,ENE,68,0.0,0.0,81,0.00,,,0.00,WUHU216HW,2013-07-14 07:17:00,
2013-07-14 03:22:00,70.9,64.8,30.12,ENE,68,0.0,0.0,81,0.00,,,0.00,WUHU216HW,2013-07-14 07:22:00,
2013-07-14 03:27:00,70.9,64.8,30.11,ENE,68,0.0,0.0,81,0.00,,,0.00,WUHU216HW,2013-07-14 07:27:00,
2013-07-14 03:32:00,70.9,65.2,30.12,ENE,68,0.0,0.0,82,0.00,,,0.00,WUHU216HW,2013-07-14 07:32:00,
2013-07-14 03:37:00,70.7,65.0,30.11,ENE,68,0.0,0.0,82,0.00,,,0.00,WUHU216HW,2013-07-14 07:37:00,
2013-07-14 03:42:00,70.7,65.0,30.12,ENE,68,0.0,0.0,82,0.00,,,0.00,WUHU216HW,2013-07-14 07:42:00,
2013-07-14 03:47:00,70.6,64.8,30.12,ENE,68,0.0,0.0,82,0.00,,,0.00,WUHU216HW,2013-07-14 07:47:00,
2013-07-14 03:52:00,70.6,64.8,30.11,ENE,68,0.0,0.0,82,0.00,,,0.00,WUHU216HW,2013-07-14 07:52:00,
2013-07-14 03:57:00,70.4,64.6,30.11,ENE,68,0.0,0.0,82,0.00,,,0.00,WUHU216HW,2013-07-14 07:57:00,
2013-07-14 04:02:00,70.4,64.6,30.12,ENE,68,0.0,0.0,82,0.00,,,0.00,WUHU216HW,2013-07-14 08:02:00,
2013-07-14 04:07:00,70.4,64.6,30.11,ENE,68,0.0,0.0,82,0.00,,,0.00,WUHU216HW,2013-07-14 08:07:00,
2013-07-14 04:12:00,70.4,64.9,30.12,ENE,68,0.0,0.0,83,0.00,,,0.00,WUHU216HW,2013-07-14 08:12:00,
2013-07-14 04:17:00,70.4,64.9,30.12,ENE,68,0.0,0.0,83,0.00,,,0.00,WUHU216HW,2013-07-14 08:17:00,
2013-07-14 04:22:00,70.4,64.9,30.12,ENE,68,0.0,0.0,83,0.00,,,0.00,WUHU216HW,2013-07-14 08:22:00,
2013-07-14 04:27:00,70.2,64.7,30.11,East,90,0.7,0.7,83,0.00,,,0.00,WUHU216HW,2013-07-14 08:27:00,
2013-07-14 04:32:00,70.2,64.7,30.12,ESE,113,0.7,1.1,83,0.00,,,0.00,WUHU216HW,2013-07-14 08:32:00,
2013-07-14 04:37:00,70.2,65.1,30.11,ESE,113,0.4,1.3,84,0.00,,,0.00,WUHU216HW,2013-07-14 08:37:00,
2013-07-14 04:42:00,70.2,64.7,30.11,ESE,113,0.0,1.3,83,0.00,,,0.00,WUHU216HW,2013-07-14 08:42:00,
2013-07-14 04:47:00,70.2,65.1,30.12,ESE,113,0.7,1.1,84,0.00,,,0.00,WUHU216HW,2013-07-14 08:47:00,
2013-07-14 04:52:00,70.0,64.9,30.12,ESE,113,0.0,1.1,84,0.00,,,0.00,WUHU216HW,2013-07-14 08:52:00,
2013-07-14 04:57:00,70.0,64.9,30.12,ESE,113,0.0,1.1,84,0.00,,,0.00,WUHU216HW,2013-07-14 08:57:00,
2013-07-14 05:02:00,70.0,64.9,30.12,SE,135,0.2,0.4,84,0.00,,,0.00,WUHU216HW,2013-07-14 09:02:00,
2013-07-14 05:07:00,70.0,64.9,30.13,SE,135,0.0,0.4,84,0.00,,,0.00,WUHU216HW,2013-07-14 09:07:00,
2013-07-14 05:12:00,69.8,64.7,30.13,SSE,158,0.4,0.4,84,0.00,,,0.00,WUHU216HW,2013-07-14 09:12:00,
2013-07-14 05:17:00,69.8,64.7,30.13,SE,135,0.0,0.7,84,0.00,,,0.00,WUHU216HW,2013-07-14 09:17:00,
2013-07-14 05:22:00,69.8,64.7,30.13,SE,135,0.0,0.7,84,0.00,,,0.00,WUHU216HW,2013-07-14 09:22:00,
2013-07-14 05:27:00,69.7,64.5,30.13,SE,135,0.0,0.0,84,0.00,,,0.00,WUHU216HW,2013-07-14 09:27:00,
2013-07-14 05:32:00,69.7,64.5,30.13,SE,135,0.0,0.0,84,0.00,,,0.00,WUHU216HW,2013-07-14 09:32:00,
2013-07-14 05:37:00,69.8,65.1,30.13,SE,135,0.0,0.0,85,0.00,,,0.00,WUHU216HW,2013-07-14 09:37:00,
2013-07-14 05:42:00,69.8,65.1,30.13,East,90,0.7,1.3,85,0.00,,,0.00,WUHU216HW,2013-07-14 09:42:00,
2013-07-14 05:47:00,69.8,65.1,30.13,East,90,0.0,1.3,85,0.00,,,0.00,WUHU216HW,2013-07-14 09:47:00,
2013-07-14 05:52:00,70.0,65.3,30.13,East,90,0.4,0.7,85,0.00,,,0.00,WUHU216HW,2013-07-14 09:52:00,
2013-07-14 05:57:00,70.0,65.3,30.13,East,90,0.2,0.7,85,0.00,,,0.00,WUHU216HW,2013-07-14 09:57:00,
2013-07-14 06:02:00,70.2,65.1,30.14,East,90,0.0,0.7,84,0.00,,,0.00,WUHU216HW,2013-07-14 10:02:00,
2013-07-14 06:07:00,70.2,65.1,30.14,East,90,0.0,0.7,84,0.00,,,0.00,WUHU216HW,2013-07-14 10:07:00,
2013-07-14 06:12:00,70.2,65.1,30.14,East,90,0.0,0.7,84,0.00,,,0.00,WUHU216HW,2013-07-14 10:12:00,
2013-07-14 06:17:00,70.2,65.1,30.15,ESE,113,0.0,0.7,84,0.00,,,0.00,WUHU216HW,2013-07-14 10:17:00,
2013-07-14 06:22:00,70.2,65.1,30.15,ESE,113,0.0,0.7,84,0.00,,,0.00,WUHU216HW,2013-07-14 10:22:00,
2013-07-14 06:27:00,70.2,65.1,30.15,ESE,113,0.0,1.1,84,0.00,,,0.00,WUHU216HW,2013-07-14 10:27:00,
2013-07-14 06:32:00,70.2,65.1,30.15,East,90,0.4,1.1,84,0.00,,,0.00,WUHU216HW,2013-07-14 10:32:00,
2013-07-14 06:37:00,70.2,65.1,30.15,East,90,0.0,0.4,84,0.00,,,0.00,WUHU216HW,2013-07-14 10:37:00,
2013-07-14 06:42:00,70.2,65.4,30.15,East,90,0.0,0.4,85,0.00,,,0.00,WUHU216HW,2013-07-14 10:42:00,
2013-07-14 06:47:00,70.2,65.4,30.15,East,90,0.0,0.4,85,0.00,,,0.00,WUHU216HW,2013-07-14 10:47:00,
2013-07-14 06:52:00,70.2,65.4,30.15,East,90,0.9,0.9,85,0.00,,,0.00,WUHU216HW,2013-07-14 10:52:00,
2013-07-14 06:57:00,70.2,65.4,30.16,ESE,113,0.0,0.9,85,0.00,,,0.00,WUHU216HW,2013-07-14 10:57:00,
2013-07-14 07:02:00,70.4,65.6,30.16,ESE,113,0.4,0.9,85,0.00,,,0.00,WUHU216HW,2013-07-14 11:02:00,
2013-07-14 07:07:00,70.4,65.6,30.16,East,90,0.4,0.7,85,0.00,,,0.00,WUHU216HW,2013-07-14 11:07:00,
2013-07-14 07:12:00,70.6,65.8,30.16,ESE,113,0.0,1.1,85,0.00,,,0.00,WUHU216HW,2013-07-14 11:12:00,
2013-07-14 07:17:00,70.6,66.2,30.16,ESE,113,0.0,1.1,86,0.00,,,0.00,WUHU216HW,2013-07-14 11:17:00,
2013-07-14 07:22:00,70.6,66.2,30.16,ESE,113,0.0,1.6,86,0.00,,,0.00,WUHU216HW,2013-07-14 11:22:00,
2013-07-14 07:27:00,70.6,66.2,30.16,SE,135,0.0,1.6,86,0.00,,,0.00,WUHU216HW,2013-07-14 11:27:00,
2013-07-14 07:32:00,70.6,66.2,30.16,ESE,113,0.4,1.3,86,0.00,,,0.00,WUHU216HW,2013-07-14 11:32:00,
2013-07-14 07:37:00,70.6,66.2,30.16,SSE,158,0.7,1.8,86,0.00,,,0.00,WUHU216HW,2013-07-14 11:37:00,
2013-07-14 07:42:00,70.6,66.2,30.17,SE,135,0.0,1.8,86,0.00,,,0.00,WUHU216HW,2013-07-14 11:42:00,
2013-07-14 07:47:00,70.6,66.2,30.17,SE,135,0.0,1.1,86,0.00,,,0.00,WUHU216HW,2013-07-14 11:47:00,
2013-07-14 07:52:00,70.6,66.5,30.18,SE,135,0.0,0.2,87,0.00,,,0.00,WUHU216HW,2013-07-14 11:52:00,
2013-07-14 07:57:00,70.6,66.5,30.18,West,270,0.0,0.0,87,0.00,,,0.00,WUHU216HW,2013-07-14 11:57:00,
2013-07-14 08:02:00,70.6,66.5,30.18,SSW,203,0.0,0.4,87,0.00,,,0.00,WUHU216HW,2013-07-14 12:02:00,
2013-07-14 08:07:00,70.6,66.5,30.18,WSW,248,0.0,0.4,87,0.00,,,0.00,WUHU216HW,2013-07-14 12:07:00,
2013-07-14 08:12:00,70.7,66.7,30.18,WSW,248,0.0,1.3,87,0.00,,,0.00,WUHU216HW,2013-07-14 12:12:00,
2013-07-14 08:17:00,70.9,66.9,30.18,WSW,248,0.0,1.3,87,0.00,,,0.00,WUHU216HW,2013-07-14 12:17:00,
2013-07-14 08:22:00,70.9,67.1,30.18,ESE,113,0.4,1.1,88,0.00,,,0.00,WUHU216HW,2013-07-14 12:22:00,
2013-07-14 08:27:00,71.1,67.3,30.18,West,270,0.0,1.1,88,0.00,,,0.00,WUHU216HW,2013-07-14 12:27:00,
2013-07-14 08:32:00,71.1,67.3,30.18,ESE,113,0.0,0.4,88,0.00,,,0.00,WUHU216HW,2013-07-14 12:32:00,
2013-07-14 08:37:00,71.5,67.4,30.18,ESE,113,0.7,1.6,87,0.00,,,0.00,WUHU216HW,2013-07-14 12:37:00,
2013-07-14 08:42:00,71.5,67.4,30.19,ESE,113,0.0,1.6,87,0.00,,,0.00,WUHU216HW,2013-07-14 12:42:00,
2013-07-14 08:47:00,71.6,67.6,30.19,ESE,113,0.0,0.4,87,0.00,,,0.00,WUHU216HW,2013-07-14 12:47:00,
2013-07-14 08:52:00,71.6,67.6,30.20,ESE,113,0.0,0.0,87,0.00,,,0.00,WUHU216HW,2013-07-14 12:52:00,
2013-07-14 08:57:00,71.6,67.6,30.20,SE,135,0.0,0.0,87,0.00,,,0.00,WUHU216HW,2013-07-14 12:57:00,
2013-07-14 09:02:00,71.6,67.9,30.20,SE,135,0.0,0.0,88,0.00,,,0.00,WUHU216HW,2013-07-14 13:02:00,
2013-07-14 09:07:00,71.6,67.9,30.20,SE,135,0.0,0.0,88,0.00,,,0.00,WUHU216HW,2013-07-14 13:07:00,
2013-07-14 09:12:00,71.8,68.0,30.20,SE,135,0.0,0.0,88,0.00,,,0.00,WUHU216HW,2013-07-14 13:12:00,
2013-07-14 09:17:00,71.8,68.0,30.21,SSE,158,0.0,1.1,88,0.00,,,0.00,WUHU216HW,2013-07-14 13:17:00,
2013-07-14 09:22:00,72.2,68.4,30.21,East,90,0.7,1.1,88,0.00,,,0.00,WUHU216HW,2013-07-14 13:22:00,
2013-07-14 09:27:00,72.4,68.6,30.20,East,90,0.7,1.6,88,0.00,,,0.00,WUHU216HW,2013-07-14 13:27:00,
2013-07-14 09:32:00,72.7,68.9,30.20,ESE,113,1.1,1.6,88,0.00,,,0.00,WUHU216HW,2013-07-14 13:32:00,
2013-07-14 09:37:00,72.9,69.1,30.20,ESE,113,0.9,1.3,88,0.00,,,0.00,WUHU216HW,2013-07-14 13:37:00,
2013-07-14 09:42:00,73.1,69.3,30.20,East,90,0.4,1.8,88,0.00,,,0.00,WUHU216HW,2013-07-14 13:42:00,
2013-07-14 09:47:00,73.4,69.7,30.20,East,90,0.2,1.8,88,0.00,,,0.00,WUHU216HW,2013-07-14 13:47:00,
2013-07-14 09:52:00,73.6,69.8,30.20,East,90,0.2,1.8,88,0.00,,,0.00,WUHU216HW,2013-07-14 13:52:00,
2013-07-14 09:57:00,73.6,69.6,30.20,ESE,113,0.4,1.8,87,0.00,,,0.00,WUHU216HW,2013-07-14 13:57:00,
2013-07-14 10:02:00,73.4,69.4,30.20,ESE,113,0.7,1.8,87,0.00,,,0.00,WUHU216HW,2013-07-14 14:02:00,
2013-07-14 10:07:00,73.4,69.4,30.20,ESE,113,0.0,1.8,87,0.00,,,0.00,WUHU216HW,2013-07-14 14:07:00,
2013-07-14 10:12:00,73.6,69.6,30.20,East,90,0.2,0.9,87,0.00,,,0.00,WUHU216HW,2013-07-14 14:12:00,
2013-07-14 10:17:00,73.8,69.8,30.20,East,90,0.0,0.9,87,0.00,,,0.00,WUHU216HW,2013-07-14 14:17:00,
2013-07-14 10:22:00,74.0,69.9,30.20,East,90,0.0,0.7,87,0.00,,,0.00,WUHU216HW,2013-07-14 14:22:00,
2013-07-14 10:27:00,74.0,69.9,30.21,ESE,113,0.0,0.7,87,0.00,,,0.00,WUHU216HW,2013-07-14 14:27:00,
2013-07-14 10:32:00,74.2,70.1,30.21,NW,315,0.4,0.7,87,0.00,,,0.00,WUHU216HW,2013-07-14 14:32:00,
2013-07-14 10:37:00,74.2,70.1,30.21,West,270,0.0,0.7,87,0.00,,,0.00,WUHU216HW,2013-07-14 14:37:00,
2013-07-14 10:42:00,74.3,70.3,30.21,SE,135,0.4,0.9,87,0.00,,,0.00,WUHU216HW,2013-07-14 14:42:00,
2013-07-14 10:47:00,74.3,70.3,30.21,SE,135,0.0,0.9,87,0.00,,,0.00,WUHU216HW,2013-07-14 14:47:00,
2013-07-14 10:52:00,74.5,70.5,30.21,SE,135,0.0,1.1,87,0.00,,,0.00,WUHU216HW,2013-07-14 14:52:00,
2013-07-14 10:57:00,74.5,70.1,30.21,SE,135,0.0,1.1,86,0.00,,,0.00,WUHU216HW,2013-07-14 14:57:00,
2013-07-14 11:02:00,74.9,70.8,30.21,NW,315,0.2,0.4,87,0.00,,,0.00,WUHU216HW,2013-07-14 15:02:00,
2013-07-14 11:07:00,75.1,71.0,30.21,ESE,113,0.9,0.9,87,0.00,,,0.00,WUHU216HW,2013-07-14 15:07:00,
2013-07-14 11:12:00,75.6,71.2,30.21,NW,315,0.2,0.9,86,0.00,,,0.00,WUHU216HW,2013-07-14 15:12:00,
2013-07-14 11:18:00,76.0,71.5,30.21,South,180,0.0,0.9,86,0.00,,,0.00,WUHU216HW,2013-07-14 15:18:00,
2013-07-14 11:23:00,76.7,71.8,30.21,SE,135,1.6,1.8,85,0.00,,,0.00,WUHU216HW,2013-07-14 15:23:00,
2013-07-14 11:28:00,77.0,72.2,30.21,ESE,113,0.2,1.8,85,0.00,,,0.00,WUHU216HW,2013-07-14 15:28:00,
2013-07-14 11:33:00,77.4,72.2,30.21,ESE,113,0.7,1.8,84,0.00,,,0.00,WUHU216HW,2013-07-14 15:33:00,
2013-07-14 11:37:00,77.9,72.4,30.21,SE,135,0.4,2.7,83,0.00,,,0.00,WUHU216HW,2013-07-14 15:37:00,
2013-07-14 11:42:00,78.3,72.7,30.22,ESE,113,1.6,2.7,83,0.00,,,0.00,WUHU216HW,2013-07-14 15:42:00,
2013-07-14 11:47:00,78.3,72.0,30.22,ESE,113,1.1,1.8,81,0.00,,,0.00,WUHU216HW,2013-07-14 15:47:00,
2013-07-14 11:52:00,78.5,72.2,30.22,ESE,113,0.2,1.8,81,0.00,,,0.00,WUHU216HW,2013-07-14 15:52:00,
2013-07-14 11:57:00,78.1,71.8,30.22,ESE,113,1.8,1.8,81,0.00,,,0.00,WUHU216HW,2013-07-14 15:57:00,
2013-07-14 12:02:00,78.1,71.5,30.22,ENE,68,0.9,2.0,80,0.00,,,0.00,WUHU216HW,2013-07-14 16:02:00,
2013-07-14 12:07:00,78.1,71.5,30.22,SE,135,0.0,2.2,80,0.00,,,0.00,WUHU216HW,2013-07-14 16:07:00,
2013-07-14 12:12:00,77.9,71.6,30.23,East,90,0.4,2.2,81,0.00,,,0.00,WUHU216HW,2013-07-14 16:12:00,
2013-07-14 12:17:00,77.8,71.5,30.23,SSE,158,0.9,1.8,81,0.00,,,0.00,WUHU216HW,2013-07-14 16:17:00,
2013-07-14 12:22:00,77.6,70.9,30.23,ESE,113,0.4,3.4,80,0.00,,,0.00,WUHU216HW,2013-07-14 16:22:00,
2013-07-14 12:28:00,77.8,71.5,30.23,ENE,68,1.8,3.4,81,0.00,,,0.00,WUHU216HW,2013-07-14 16:28:00,
2013-07-14 12:33:00,77.8,71.5,30.23,ESE,113,1.1,1.8,81,0.00,,,0.00,WUHU216HW,2013-07-14 16:33:00,
2013-07-14 12:38:00,77.9,71.6,30.23,East,90,0.7,1.3,81,0.00,,,0.00,WUHU216HW,2013-07-14 16:38:00,
2013-07-14 12:43:00,78.1,71.5,30.23,ESE,113,1.6,2.0,80,0.00,,,0.00,WUHU216HW,2013-07-14 16:43:00,
2013-07-14 12:48:00,78.5,71.5,30.23,East,90,1.1,2.2,79,0.00,,,0.00,WUHU216HW,2013-07-14 16:48:00,
2013-07-14 12:53:00,78.8,71.8,30.23,ESE,113,2.0,2.2,79,0.00,,,0.00,WUHU216HW,2013-07-14 16:53:00,
2013-07-14 12:58:00,78.8,71.4,30.23,ESE,113,1.8,2.2,78,0.00,,,0.00,WUHU216HW,2013-07-14 16:58:00,
2013-07-14 13:03:00,78.8,71.4,30.22,SE,135,2.2,2.5,78,0.00,,,0.00,WUHU216HW,2013-07-14 17:03:00,
2013-07-14 13:08:00,78.8,71.4,30.22,ESE,113,0.4,2.5,78,0.00,,,0.00,WUHU216HW,2013-07-14 17:08:00,
2013-07-14 13:13:00,78.8,71.4,30.22,East,90,1.1,2.5,78,0.00,,,0.00,WUHU216HW,2013-07-14 17:13:00,
2013-07-14 13:18:00,79.0,71.6,30.22,ESE,113,1.6,2.5,78,0.00,,,0.00,WUHU216HW,2013-07-14 17:18:00,
2013-07-14 13:23:00,79.2,71.7,30.22,ENE,68,1.3,2.5,78,0.00,,,0.00,WUHU216HW,2013-07-14 17:23:00,
2013-07-14 13:28:00,79.6,72.1,30.22,ESE,113,1.8,2.5,78,0.00,,,0.00,WUHU216HW,2013-07-14 17:28:00,
2013-07-14 13:33:00,79.7,72.3,30.22,NE,45,1.6,2.5,78,0.00,,,0.00,WUHU216HW,2013-07-14 17:33:00,
2013-07-14 13:38:00,80.1,72.3,30.22,ESE,113,1.8,2.5,77,0.00,,,0.00,WUHU216HW,2013-07-14 17:38:00,
2013-07-14 13:43:00,80.5,72.6,30.22,South,180,1.1,2.5,77,0.00,,,0.00,WUHU216HW,2013-07-14 17:43:00,
2013-07-14 13:48:00,80.6,72.8,30.22,ESE,113,2.5,2.7,77,0.00,,,0.00,WUHU216HW,2013-07-14 17:48:00,
2013-07-14 13:53:00,80.8,72.2,30.21,East,90,2.5,3.4,75,0.00,,,0.00,WUHU216HW,2013-07-14 17:53:00,
2013-07-14 13:58:00,81.0,72.4,30.21,ESE,113,2.0,3.4,75,0.00,,,0.00,WUHU216HW,2013-07-14 17:58:00,
2013-07-14 14:03:00,81.2,72.1,30.21,ESE,113,2.0,3.6,74,0.00,,,0.00,WUHU216HW,2013-07-14 18:03:00,
2013-07-14 14:08:00,81.7,72.2,30.21,ESE,113,2.2,3.6,73,0.00,,,0.00,WUHU216HW,2013-07-14 18:08:00,
2013-07-14 14:13:00,81.5,71.6,30.22,ENE,68,1.6,2.9,72,0.00,,,0.00,WUHU216HW,2013-07-14 18:13:00,
2013-07-14 14:18:00,81.4,71.9,30.22,East,90,1.1,3.4,73,0.00,,,0.00,WUHU216HW,2013-07-14 18:18:00,
2013-07-14 14:23:00,81.0,71.6,30.22,ESE,113,1.1,3.4,73,0.00,,,0.00,WUHU216HW,2013-07-14 18:23:00,
2013-07-14 14:28:00,80.6,71.2,30.22,East,90,0.9,2.7,73,0.00,,,0.00,WUHU216HW,2013-07-14 18:28:00,
2013-07-14 14:33:00,80.3,70.8,30.22,East,90,1.1,2.7,73,0.00,,,0.00,WUHU216HW,2013-07-14 18:33:00,
2013-07-14 14:38:00,79.9,70.5,30.22,ESE,113,0.7,1.8,73,0.00,,,0.00,WUHU216HW,2013-07-14 18:38:00,
2013-07-14 14:43:00,79.6,70.6,30.22,East,90,1.8,3.6,74,0.00,,,0.00,WUHU216HW,2013-07-14 18:43:00,
2013-07-14 14:48:00,79.4,70.4,30.22,ESE,113,2.2,3.6,74,0.00,,,0.00,WUHU216HW,2013-07-14 18:48:00,
2013-07-14 14:53:00,79.4,70.4,30.22,East,90,1.8,3.4,74,0.00,,,0.00,WUHU216HW,2013-07-14 18:53:00,
2013-07-14 14:58:00,79.2,70.2,30.22,SSE,158,0.9,3.4,74,0.00,,,0.00,WUHU216HW,2013-07-14 18:58:00,
2013-07-14 15:03:00,78.8,70.2,30.22,SE,135,0.4,1.8,75,0.00,,,0.00,WUHU216HW,2013-07-14 19:03:00,
2013-07-14 15:08:00,78.5,69.8,30.21,East,90,1.6,2.5,75,0.00,,,0.00,WUHU216HW,2013-07-14 19:08:00,
2013-07-14 15:13:00,78.3,69.7,30.21,ENE,68,2.5,2.5,75,0.00,,,0.00,WUHU216HW,2013-07-14 19:13:00,
2013-07-14 15:18:00,78.5,69.8,30.21,East,90,2.5,3.8,75,0.00,,,0.00,WUHU216HW,2013-07-14 19:18:00,
2013-07-14 15:23:00,78.7,70.0,30.21,East,90,1.3,3.8,75,0.00,,,0.00,WUHU216HW,2013-07-14 19:23:00,
2013-07-14 15:28:00,78.8,70.2,30.22,SSW,203,2.9,3.8,75,0.00,,,0.00,WUHU216HW,2013-07-14 19:28:00,
2013-07-14 15:33:00,79.0,70.4,30.21,ESE,113,0.7,3.8,75,0.00,,,0.00,WUHU216HW,2013-07-14 19:33:00,
2013-07-14 15:38:00,78.8,70.2,30.22,SE,135,1.6,2.9,75,0.00,,,0.00,WUHU216HW,2013-07-14 19:38:00,
2013-07-14 15:43:00,78.5,69.8,30.22,ESE,113,1.8,2.2,75,0.00,,,0.00,WUHU216HW,2013-07-14 19:43:00,
2013-07-14 15:48:00,78.3,69.7,30.22,ESE,113,2.0,3.4,75,0.00,,,0.00,WUHU216HW,2013-07-14 19:48:00,
2013-07-14 15:53:00,78.5,69.8,30.22,ESE,113,1.6,3.4,75,0.00,,,0.00,WUHU216HW,2013-07-14 19:53:00,
2013-07-14 15:58:00,78.7,70.0,30.22,East,90,1.8,2.5,75,0.00,,,0.00,WUHU216HW,2013-07-14 19:58:00,
2013-07-14 16:03:00,78.7,70.0,30.22,East,90,1.3,3.8,75,0.00,,,0.00,WUHU216HW,2013-07-14 20:03:00,
2013-07-14 16:08:00,78.7,70.0,30.22,East,90,0.4,3.8,75,0.00,,,0.00,WUHU216HW,2013-07-14 20:08:00,
2013-07-14 16:13:00,78.7,70.4,30.22,ESE,113,1.3,1.8,76,0.00,,,0.00,WUHU216HW,2013-07-14 20:13:00,
2013-07-14 16:18:00,78.7,70.0,30.22,ESE,113,1.3,2.2,75,0.00,,,0.00,WUHU216HW,2013-07-14 20:18:00,
2013-07-14 16:23:00,78.8,70.2,30.21,ESE,113,1.1,2.7,75,0.00,,,0.00,WUHU216HW,2013-07-14 20:23:00,
2013-07-14 16:28:00,79.0,70.4,30.21,ENE,68,2.0,2.7,75,0.00,,,0.00,WUHU216HW,2013-07-14 20:28:00,
2013-07-14 16:33:00,79.6,70.6,30.21,East,90,1.6,2.0,74,0.00,,,0.00,WUHU216HW,2013-07-14 20:33:00,
2013-07-14 16:38:00,80.1,71.1,30.21,East,90,2.0,2.2,74,0.00,,,0.00,WUHU216HW,2013-07-14 20:38:00,
2013-07-14 16:43:00,80.3,70.8,30.21,ESE,113,1.6,2.7,73,0.00,,,0.00,WUHU216HW,2013-07-14 20:43:00,
2013-07-14 16:48:00,80.1,70.7,30.21,East,90,1.1,2.7,73,0.00,,,0.00,WUHU216HW,2013-07-14 20:48:00,
2013-07-14 16:53:00,79.9,70.9,30.21,ESE,113,0.9,1.8,74,0.00,,,0.00,WUHU216HW,2013-07-14 20:53:00,
2013-07-14 16:58:00,79.9,70.9,30.21,ESE,113,1.6,2.9,74,0.00,,,0.00,WUHU216HW,2013-07-14 20:58:00,
2013-07-14 17:03:00,79.9,70.9,30.20,SE,135,0.9,2.9,74,0.00,,,0.00,WUHU216HW,2013-07-14 21:03:00,
2013-07-14 17:08:00,79.9,71.3,30.21,ESE,113,0.7,2.2,75,0.00,,,0.00,WUHU216HW,2013-07-14 21:08:00,
2013-07-14 17:13:00,79.6,70.9,30.21,ESE,113,1.1,2.2,75,0.00,,,0.00,WUHU216HW,2013-07-14 21:13:00,
2013-07-14 17:18:00,79.2,70.6,30.21,East,90,0.4,2.0,75,0.00,,,0.00,WUHU216HW,2013-07-14 21:18:00,
2013-07-14 17:23:00,79.6,70.9,30.21,East,90,1.3,1.8,75,0.00,,,0.00,WUHU216HW,2013-07-14 21:23:00,
2013-07-14 17:28:00,79.7,71.1,30.20,ESE,113,2.0,2.5,75,0.00,,,0.00,WUHU216HW,2013-07-14 21:28:00,
2013-07-14 17:33:00,79.7,71.1,30.21,East,90,1.1,2.5,75,0.00,,,0.00,WUHU216HW,2013-07-14 21:33:00,
2013-07-14 17:38:00,79.9,70.9,30.21,East,90,1.1,3.1,74,0.00,,,0.00,WUHU216HW,2013-07-14 21:38:00,
2013-07-14 17:43:00,79.9,70.9,30.21,ESE,113,0.4,3.1,74,0.00,,,0.00,WUHU216HW,2013-07-14 21:43:00,
2013-07-14 17:48:00,79.7,70.8,30.21,SE,135,2.2,3.4,74,0.00,,,0.00,WUHU216HW,2013-07-14 21:48:00,
2013-07-14 17:53:00,79.4,69.9,30.21,ESE,113,1.1,3.4,73,0.00,,,0.00,WUHU216HW,2013-07-14 21:53:00,
2013-07-14 17:58:00,79.2,69.4,30.21,East,90,1.6,4.0,72,0.00,,,0.00,WUHU216HW,2013-07-14 21:58:00,
2013-07-14 18:03:00,79.2,69.8,30.21,ESE,113,1.8,4.0,73,0.00,,,0.00,WUHU216HW,2013-07-14 22:03:00,
2013-07-14 18:08:00,79.2,69.8,30.21,East,90,1.6,1.8,73,0.00,,,0.00,WUHU216HW,2013-07-14 22:08:00,
2013-07-14 18:13:00,79.6,70.1,30.20,East,90,1.3,2.5,73,0.00,,,0.00,WUHU216HW,2013-07-14 22:13:00,
2013-07-14 18:18:00,79.6,70.1,30.20,East,90,2.5,3.4,73,0.00,,,0.00,WUHU216HW,2013-07-14 22:18:00,
2013-07-14 18:23:00,79.6,69.8,30.20,ESE,113,1.3,3.4,72,0.00,,,0.00,WUHU216HW,2013-07-14 22:23:00,
2013-07-14 18:28:00,79.2,69.8,30.20,East,90,1.6,2.5,73,0.00,,,0.00,WUHU216HW,2013-07-14 22:28:00,
2013-07-14 18:33:00,79.0,69.6,30.21,East,90,0.9,2.2,73,0.00,,,0.00,WUHU216HW,2013-07-14 22:33:00,
2013-07-14 18:38:00,78.7,69.2,30.21,East,90,0.4,1.8,73,0.00,,,0.00,WUHU216HW,2013-07-14 22:38:00,
2013-07-14 18:43:00,78.5,69.5,30.21,East,90,1.1,1.8,74,0.00,,,0.00,WUHU216HW,2013-07-14 22:43:00,
2013-07-14 18:48:00,78.3,69.3,30.21,East,90,0.0,1.8,74,0.00,,,0.00,WUHU216HW,2013-07-14 22:48:00,
2013-07-14 18:53:00,78.1,69.1,30.21,East,90,0.0,1.8,74,0.00,,,0.00,WUHU216HW,2013-07-14 22:53:00,
2013-07-14 18:58:00,77.9,69.3,30.21,ESE,113,1.1,1.8,75,0.00,,,0.00,WUHU216HW,2013-07-14 22:58:00,
2013-07-14 19:03:00,77.8,69.2,30.21,East,90,0.4,2.0,75,0.00,,,0.00,WUHU216HW,2013-07-14 23:03:00,
2013-07-14 19:08:00,77.8,69.2,30.21,ESE,113,1.1,2.0,75,0.00,,,0.00,WUHU216HW,2013-07-14 23:08:00,
2013-07-14 19:13:00,77.8,69.2,30.21,ESE,113,1.1,2.5,75,0.00,,,0.00,WUHU216HW,2013-07-14 23:13:00,
2013-07-14 19:18:00,77.9,69.3,30.21,East,90,1.6,2.5,75,0.00,,,0.00,WUHU216HW,2013-07-14 23:18:00,
2013-07-14 19:23:00,77.9,69.3,30.21,East,90,1.3,4.0,75,0.00,,,0.00,WUHU216HW,2013-07-14 23:23:00,
2013-07-14 19:28:00,78.1,69.5,30.21,East,90,0.4,4.0,75,0.00,,,0.00,WUHU216HW,2013-07-14 23:28:00,
2013-07-14 19:33:00,77.9,69.3,30.21,ESE,113,2.0,2.2,75,0.00,,,0.00,WUHU216HW,2013-07-14 23:33:00,
2013-07-14 19:38:00,77.8,69.2,30.22,ESE,113,0.7,2.2,75,0.00,,,0.00,WUHU216HW,2013-07-14 23:38:00,
2013-07-14 19:43:00,77.8,69.2,30.22,ESE,113,1.3,2.2,75,0.00,,,0.00,WUHU216HW,2013-07-14 23:43:00,
2013-07-14 19:48:00,77.6,69.0,30.23,East,90,0.4,1.8,75,0.00,,,0.00,WUHU216HW,2013-07-14 23:48:00,
2013-07-14 19:53:00,77.4,68.9,30.23,ESE,113,0.0,1.8,75,0.00,,,0.00,WUHU216HW,2013-07-14 23:53:00,
2013-07-14 19:58:00,77.4,68.9,30.23,East,90,1.1,1.8,75,0.00,,,0.00,WUHU216HW,2013-07-14 23:58:00,
2013-07-14 20:03:00,77.2,68.3,30.23,East,90,0.0,1.8,74,0.00,,,0.00,WUHU216HW,2013-07-15 00:03:00,
2013-07-14 20:08:00,77.0,68.5,30.23,East,90,0.0,1.3,75,0.00,,,0.00,WUHU216HW,2013-07-15 00:08:00,
2013-07-14 20:13:00,77.0,68.5,30.23,East,90,0.4,0.4,75,0.00,,,0.00,WUHU216HW,2013-07-15 00:13:00,
2013-07-14 20:18:00,76.9,68.3,30.23,ESE,113,0.0,0.9,75,0.00,,,0.00,WUHU216HW,2013-07-15 00:18:00,
2013-07-14 20:23:00,76.7,68.1,30.23,ESE,113,0.0,0.9,75,0.00,,,0.00,WUHU216HW,2013-07-15 00:23:00,
2013-07-14 20:28:00,76.7,68.1,30.23,ESE,113,0.7,0.9,75,0.00,,,0.00,WUHU216HW,2013-07-15 00:28:00,
2013-07-14 20:33:00,76.5,68.0,30.22,East,90,0.2,1.3,75,0.00,,,0.00,WUHU216HW,2013-07-15 00:33:00,
2013-07-14 20:38:00,76.3,67.8,30.23,East,90,0.2,1.6,75,0.00,,,0.00,WUHU216HW,2013-07-15 00:38:00,
2013-07-14 20:43:00,76.3,67.8,30.23,East,90,0.7,1.6,75,0.00,,,0.00,WUHU216HW,2013-07-15 00:43:00,
2013-07-14 20:48:00,76.1,67.7,30.22,ESE,113,0.0,0.9,75,0.00,,,0.00,WUHU216HW,2013-07-15 00:48:00,
2013-07-14 20:53:00,75.8,67.3,30.22,ESE,113,0.4,1.3,75,0.00,,,0.00,WUHU216HW,2013-07-15 00:53:00,
2013-07-14 20:58:00,75.6,67.2,30.23,East,90,0.9,1.3,75,0.00,,,0.00,WUHU216HW,2013-07-15 00:58:00,
2013-07-14 21:03:00,75.6,67.2,30.23,East,90,0.7,1.1,75,0.00,,,0.00,WUHU216HW,2013-07-15 01:03:00,
2013-07-14 21:08:00,75.4,67.0,30.23,ESE,113,0.2,1.1,75,0.00,,,0.00,WUHU216HW,2013-07-15 01:08:00,
2013-07-14 21:13:00,75.2,66.8,30.23,ESE,113,1.1,1.8,75,0.00,,,0.00,WUHU216HW,2013-07-15 01:13:00,
2013-07-14 21:18:00,75.1,66.6,30.23,East,90,1.1,1.8,75,0.00,,,0.00,WUHU216HW,2013-07-15 01:18:00,
2013-07-14 21:23:00,74.9,66.4,30.23,East,90,1.6,1.8,75,0.00,,,0.00,WUHU216HW,2013-07-15 01:23:00,
2013-07-14 21:28:00,74.9,66.4,30.23,ESE,113,1.6,1.8,75,0.00,,,0.00,WUHU216HW,2013-07-15 01:28:00,
2013-07-14 21:33:00,74.9,66.4,30.23,East,90,0.7,1.8,75,0.00,,,0.00,WUHU216HW,2013-07-15 01:33:00,
2013-07-14 21:38:00,74.9,66.4,30.24,East,90,0.7,1.6,75,0.00,,,0.00,WUHU216HW,2013-07-15 01:38:00,
2013-07-14 21:43:00,74.7,66.7,30.24,East,90,0.9,1.3,76,0.00,,,0.00,WUHU216HW,2013-07-15 01:43:00,
2013-07-14 21:48:00,74.5,66.5,30.24,East,90,0.4,1.3,76,0.00,,,0.00,WUHU216HW,2013-07-15 01:48:00,
2013-07-14 21:53:00,74.5,66.5,30.24,East,90,0.7,1.3,76,0.00,,,0.00,WUHU216HW,2013-07-15 01:53:00,
2013-07-14 21:58:00,74.5,66.5,30.24,East,90,0.2,1.1,76,0.00,,,0.00,WUHU216HW,2013-07-15 01:58:00,
2013-07-14 22:03:00,74.5,66.5,30.25,East,90,0.4,1.3,76,0.00,,,0.00,WUHU216HW,2013-07-15 02:03:00,
2013-07-14 22:08:00,74.3,66.3,30.25,East,90,0.2,1.3,76,0.00,,,0.00,WUHU216HW,2013-07-15 02:08:00,
2013-07-14 22:13:00,74.2,66.2,30.25,East,90,0.2,1.3,76,0.00,,,0.00,WUHU216HW,2013-07-15 02:13:00,
2013-07-14 22:18:00,74.2,66.2,30.26,East,90,0.0,0.4,76,0.00,,,0.00,WUHU216HW,2013-07-15 02:18:00,
2013-07-14 22:23:00,74.0,66.3,30.26,East,90,0.2,0.4,77,0.00,,,0.00,WUHU216HW,2013-07-15 02:23:00,
2013-07-14 22:28:00,73.8,66.2,30.26,NE,45,0.0,0.2,77,0.00,,,0.00,WUHU216HW,2013-07-15 02:28:00,
2013-07-14 22:33:00,73.8,66.2,30.26,ESE,113,0.0,1.1,77,0.00,,,0.00,WUHU216HW,2013-07-15 02:33:00,
2013-07-14 22:38:00,73.6,66.0,30.26,ENE,68,0.0,1.1,77,0.00,,,0.00,WUHU216HW,2013-07-15 02:38:00,
2013-07-14 22:43:00,73.6,66.0,30.26,ENE,68,0.2,1.1,77,0.00,,,0.00,WUHU216HW,2013-07-15 02:43:00,
2013-07-14 22:48:00,73.4,65.8,30.26,East,90,0.2,1.3,77,0.00,,,0.00,WUHU216HW,2013-07-15 02:48:00,
2013-07-14 22:53:00,73.4,65.8,30.26,East,90,0.0,1.3,77,0.00,,,0.00,WUHU216HW,2013-07-15 02:53:00,
2013-07-14 22:58:00,73.6,66.0,30.27,East,90,0.0,1.1,77,0.00,,,0.00,WUHU216HW,2013-07-15 02:58:00,
2013-07-14 23:03:00,73.6,66.0,30.26,East,90,0.0,1.1,77,0.00,,,0.00,WUHU216HW,2013-07-15 03:03:00,
2013-07-14 23:08:00,73.4,66.3,30.26,ESE,113,0.2,1.1,78,0.00,,,0.00,WUHU216HW,2013-07-15 03:08:00,
2013-07-14 23:13:00,73.4,66.3,30.26,East,90,0.0,1.1,78,0.00,,,0.00,WUHU216HW,2013-07-15 03:13:00,
2013-07-14 23:14:00,73.4,66.3,30.26,East,90,0.0,1.1,78,0.00,,,0.00,WUHU216HW,2013-07-15 03:14:00,
2013-07-14 23:19:00,73.3,66.1,30.26,ESE,113,0.0,1.1,78,0.00,,,0.00,WUHU216HW,2013-07-15 03:19:00,
2013-07-14 23:24:00,73.1,65.9,30.26,East,90,0.0,1.1,78,0.00,,,0.00,WUHU216HW,2013-07-15 03:24:00,
2013-07-14 23:29:00,73.1,65.9,30.26,East,90,1.1,1.3,78,0.00,,,0.00,WUHU216HW,2013-07-15 03:29:00,
2013-07-14 23:34:00,73.1,65.9,30.26,East,90,0.7,1.3,78,0.00,,,0.00,WUHU216HW,2013-07-15 03:34:00,
2013-07-14 23:39:00,73.1,65.9,30.26,East,90,0.4,1.8,78,0.00,,,0.00,WUHU216HW,2013-07-15 03:39:00,
2013-07-14 23:44:00,73.1,65.9,30.26,ESE,113,1.3,1.8,78,0.00,,,0.00,WUHU216HW,2013-07-15 03:44:00,
2013-07-14 23:49:00,73.3,66.1,30.26,East,90,0.4,1.8,78,0.00,,,0.00,WUHU216HW,2013-07-15 03:49:00,
2013-07-14 23:54:00,73.3,66.1,30.26,East,90,0.4,1.3,78,0.00,,,0.00,WUHU216HW,2013-07-15 03:54:00,
2013-07-14 23:59:00,73.1,65.9,30.26,East,90,0.0,1.1,78,0.00,,,0.00,WUHU216HW,2013-07-15 03:59:00,